Miscellaneous Local Product
Issued by NWS Hastings, NE

Home | Current Version | Previous Version | Graphics & Text | Print | Product List | Glossary On
Versions: 1 2 3 4 5 6 7 8 9 10 11 12 13 14 15 16 17 18 19 20 21 22 23 24 25 26 27 28 29 30 31 32 33 34 35 36 37 38 39 40 41 42 43 44 45 46 47 48 49 50
000
AXUS43 KGID 171402
MISGRI

GID CWA HOURLY WEATHER ROUNDUP
NATIONAL WEATHER SERVICE HASTINGS NE
900 AM CDT FRI APR 17 2015

NOTE: "FAIR" INDICATES FEW OR NO CLOUDS BELOW 12,000 FEET WITH NO
SIGNIFICANT WEATHER AND/OR OBSTRUCTIONS TO VISIBILITY.

...SOUTH CENTRAL NEBRASKA...

CITY           SKY/WX    TMP DP  RH WIND       PRES   REMARKS
GRAND ISLAND   LGT RAIN  53  52  96 N9        30.12F FOG
HASTINGS       LGT RAIN  56  54  93 NE14      30.07F FOG
KEARNEY        CLOUDY    54  52  94 NE20      30.06F
ORD            LGT RAIN  54  52  93 N3        30.11S FOG
YORK           CLOUDY    57  54  88 NE13      30.10S
AURORA         RAIN      56  54  92 NE17G24   30.10S
LEXINGTON      CLOUDY    55  54  95 NE16      30.05F FOG
HOLDREGE       CLOUDY    54  53  96 NE14      30.04F FOG
HEBRON         CLOUDY    58  55  89 N3        30.08F FOG

...NEBRASKA PANHANDLE...

CITY           SKY/WX    TMP DP  RH WIND       PRES   REMARKS
CHADRON        LGT RAIN  45  39  79 NE3       30.17S
ALLIANCE       LGT RAIN  44  42  93 NE14      30.11S FOG
SCOTTSBLUFF    LGT RAIN  45  32  60 NE20G26   30.10R
SIDNEY         RAIN      46  45  96 NE18      30.05S FOG

...WESTERN AND NORTH CENTRAL NEBRASKA...

CITY           SKY/WX    TMP DP  RH WIND       PRES   REMARKS
VALENTINE      CLOUDY    51  37  58 E9        30.16R
AINSWORTH      CLOUDY    51  44  77 E3        30.14F
ONEILL         CLOUDY    52  48  86 CALM      30.15S
BROKEN BOW     LGT RAIN  54  52  93 E10       30.10F FOG
IMPERIAL       CLOUDY    52  50  93 E9        30.04S FOG
NORTH PLATTE   CLOUDY    53  51  93 E12       30.07S
MCCOOK         CLOUDY    54  52  93 E14       30.03S FOG

...EASTERN NEBRASKA...

CITY           SKY/WX    TMP DP  RH WIND       PRES   REMARKS
NORFOLK        NOT AVBL
SO SIOUX CITY  CLOUDY    56  48  74 NW5       30.12S
TEKAMAH        CLOUDY    59  51  75 N5        30.11S
COLUMBUS       CLOUDY    61  52  72 NE6       30.13R
ALBION         LGT RAIN  55  51  85 N7        30.12F
OMAHA EPPLEY   PTSUNNY   62  53  72 NW3       30.10F
OFFUTT AFB     MOSUNNY   62  53  72 E7        30.10S
MILLARD        PTSUNNY   63  53  69 CALM      30.10S
LINCOLN        CLOUDY    59  53  80 N5        30.11R HAZE
NEBRASKA CITY  CLOUDY    58  50  75 CALM      30.11R
BEATRICE       CLOUDY    59  54  83 E8        30.08F
FALLS CITY     PTSUNNY   62  55  77 E3        30.08F

...NORTHERN KANSAS...

CITY           SKY/WX    TMP DP  RH WIND       PRES   REMARKS
GOODLAND       CLOUDY    51  50  96 SE13      30.01S
HILL CITY      CLOUDY    55  52  89 NE8       30.03R FOG
NORTON         SUNNY     54  52  94 NE8       30.03R
PHILLIPSBURG   SUNNY     59  57  94 N9        30.02R
SMITH CENTER   MOSUNNY   55  54  94 NE22      29.99F
BELOIT         CLOUDY    57  54  88 E6        30.05S
HAYS           CLOUDY    55  48  76 CALM      30.02R
RUSSELL        CLOUDY    56  53  90 E24G31    29.94S
CONCORDIA      CLOUDY    58  55  90 NW3       30.07S
SALINA         LGT RAIN  57  55  93 NE5       30.06F
TOPEKA         MOSUNNY   63  57  81 E7        30.05F



USA.gov is the U.S. government's official web portal to all federal, state and local government web resources and services.